Regional Weather Roundup
Issued by NWS San Diego, CA

Home | Current Version | Previous Version | Text Only | Print | Product List | Glossary On
Versions: 1 2 3 4 5 6 7 8 9 10 11 12 13 14 15 16 17 18 19 20 21 22 23 24 25 26 27 28 29 30 31 32 33 34 35 36 37 38 39 40 41 42 43 44 45 46 47 48 49 50
000
ASUS46 KSGX 280710
RWRSGX

SAN DIEGO HOURLY WEATHER ROUNDUP
NATIONAL WEATHER SERVICE SAN DIEGO CA
1100 PM PST SAT DEC 27 2014

NOTE: "FAIR" INDICATES FEW OR NO CLOUDS BELOW 12,000 FEET WITH NO
SIGNIFICANT WEATHER AND/OR OBSTRUCTIONS TO VISIBILITY.

CAZ042-043-060-061-PZZ750-775-280800-

GREATER SAN DIEGO AREA

CITY           SKY/WX    TMP DP  RH WIND       PRES   REMARKS
LINDBERGH FLD  PTCLDY    52  25  35 E3        30.32S
POINT LOMA       N/A     48  35  61 E5          N/A
NATIONAL CITY    N/A     46  33  60 CALM      30.32S
CHULA VISTA      N/A     44  34  67 CALM      30.25
IMPERIAL BEACH PTCLDY    47  23  38 E8        30.31S
BROWN FIELD    PTCLDY    45  25  45 SE3       30.31S
MIRAMAR MCAS   PTCLDY    44  23  43 E5        30.30S
MONTGOMERY FLD PTCLDY    45  23  42 SE5       30.30F

$$

NORTH SAN DIEGO COUNTY

CITY           SKY/WX    TMP DP  RH WIND       PRES   REMARKS
CAMP PENDLETON CLEAR     37  25  61 CALM      30.32S
OCEANSIDE AP   CLEAR     37  28  70 CALM      30.32S
OCEANSIDE HBR    N/A     45  28  52 E6        30.34F
VISTA            N/A     40  31  70 CALM      30.31S
CARLSBAD       PTCLDY    45  23  42 CALM      30.30S
DEL MAR          N/A     48  21  34 CALM      30.33F
LA JOLLA SCRIP   N/A     50  22  33 CALM      30.28F
FALLBROOK        N/A     46  19  35 CALM      30.32
ESCONDIDO        N/A     41  28  59 CALM      30.33F
SAN MARCOS       N/A     47  20  33 CALM      30.30S
POWAY            N/A     37  27  67 CALM      30.34F

$$

EAST SAN DIEGO COUNTY

CITY           SKY/WX    TMP DP  RH WIND       PRES   REMARKS
RAMONA         PTCLDY    33  19  56 CALM      30.29F
SANTEE LAKES     N/A     38  28  68 CALM      30.34F
LA MESA          N/A     46  26  45 CALM      30.27S
JAMUL            N/A     40  22  49 CALM      30.32F
DESCANSO N       N/A     32   9  37 E8        30.25  WCI  25
MT. LAGUNA OBS   N/A     39 -23   6 N1        29.80
CAMPO            N/A     35   9  33 N7        30.25F WCI  29

$$

ORANGE COUNTY AND THE LOS ANGELES BASIN

CITY           SKY/WX    TMP DP  RH WIND       PRES   REMARKS
JOHN WAYNE AP  PTCLDY    51  29  42 CALM      30.32F
LAGUNA BEACH     N/A     43  33  66 N6        30.28F
LAKE FOREST FR   N/A     45  20  37 NE5       30.22F
SANTA ANA        N/A     45  34  66 CALM      30.27F
HUNTINGTON BCH   N/A     43  37  77 NW1       30.33F
LOS ALAMITOS   FAIR      47  33  58 NE2       30.31F
FULLERTON      CLEAR     46  33  60 CALM      30.31F
LONG BEACH     CLEAR     48  36  63 CALM      30.32F
L.A. AP        PTCLDY    50  25  37 VRB7      30.32F
L.A. DOWNTOWN  CLEAR     48  29  47 CALM      30.32F

$$

THE INLAND EMPIRE

CITY           SKY/WX    TMP DP  RH WIND       PRES   REMARKS
CORONA         CLEAR     34  26  72 CALM      30.34R
CHINO          CLEAR     41  25  53 N3        30.34S
ONTARIO        PTCLDY    42  24  49 CALM      30.32S
RIVERSIDE AP   CLEAR     43  19  38 E3        30.33R
RIV CYN CREST    N/A     42  30  61 CALM        N/A
MORENO VALLEY    N/A     41  25  53 CALM      29.48
MARCH ARB      CLEAR     34  23  63 NW1       30.31S
HORSETHIEF CYN   N/A     39  15  36 SW3       30.33
PERRIS           N/A     42  23  46 CALM      30.31
MENIFEE          N/A     37  26  64 CALM      30.37
HEMET EAST       N/A     41   8  25 CALM      30.36
FRENCH VALLEY  FAIR      37  23  56 N3        30.31S
TEMECULA         N/A     42  25  51 SW2       30.27

$$

SAN BERNARDINO AND RIVERSIDE COUNTY MOUNTAINS

CITY           SKY/WX    TMP DP  RH WIND       PRES   REMARKS
BIG BEAR AP    PTCLDY    21   9  58 CALM      30.29S
PINE COVE        N/A     36  -6  16 N6        30.39F WCI  31

$$

SOUTHERN DESERT INCLUDING THE COACHELLA VALLEY

CITY           SKY/WX    TMP DP  RH WIND       PRES   REMARKS
PALM SPRINGS   PTCLDY    47  16  29 NW6       30.36F
THOUSAND PALMS   N/A     40  14  33 W2        30.32F
PALM DESERT      N/A     42  25  52 CALM        N/A
THERMAL        CLEAR     30  17  58 CALM      30.34F
BLYTHE         CLEAR     43  15  32 NW5       30.34F
IMPERIAL AP    CLEAR     38  17  42 SW7       30.34F WCI  33
EL CENTRO NAS  CLEAR     38  13  35 W9        30.34F WCI  31
YUMA AZ        CLEAR     43  20  39 CALM      30.32F

$$

UPPER DESERT

CITY           SKY/WX    TMP DP  RH WIND       PRES   REMARKS
VICTORVILLE AP   N/A     28  16  59 CALM      30.33S
HESPERIA         N/A     31  15  52 W3        30.57R
PALMDALE       CLEAR     30  22  72 S6        30.34F WCI  24
LANCASTER      CLEAR     26  21  81 NW3       30.34F
EDWARDS AFB    CLEAR     28  20  70 SW7       30.33F WCI  21
DAGGETT        CLEAR     30  13  49 CALM      30.35F
29 PALMS N     PTCLDY    33   9  36 CALM      30.41F
NEEDLES        CLEAR     39  10  30 W8        30.36S WCI  33

$$

REGIONAL REPORTS

CITY           SKY/WX    TMP DP  RH WIND       PRES   REMARKS
SANTA BARBARA  PTCLDY    40  35  83 CALM      30.32F
SANDBERG       CLEAR     38  17  42 NE9       30.29F WCI  31
LAS VEGAS NV   CLEAR     36  10  34 S9        30.31F WCI  29
PHOENIX AZ     CLEAR     44  21  40 W6        30.29S
TIJUANA        CLEAR     50   9  18 E8        30.32F
ENSENADA NW      N/A     54  32  43 W3        30.27S

$$

OFFSHORE ISLANDS

CITY           SKY/WX    TMP DP  RH WIND       PRES   REMARKS
CATALINA ARPT  CLEAR     48  35  60 W8        30.31F
SAN NICOLAS IS CLEAR    N/A N/A N/A W9        30.33S

$$

MARINE AND OFFSHORE BUOY REPORTS

STATION/POSITION SKY/WX   TEMP    WIND        PRES    SWELL
                          AIR SEA DIR/SP/G            HT/PER/DIR
                          (F)     (DEG/KT/KT) (MB)    (FT/S/D)
TANNER BANKS               60 63   CALM  /  2 1026.8F   5/310/11
S CLEMENTE BASIN           60 64  360/  8/ 10 1026.3F   2/290/11
SAN NICOLAS IS.               61                N/A     3/300/12
SO. S. ROSA ISLA           58 59  310/  4/  6 1026.8F   5/ 9
W. S. BARBARA CH           58 61  340/  6/  8 1026.6F   5/310/15
S. MONICA BASIN            59 62  330/ 12/ 14 1026.8F   2/260/ 9
S PEDRO CHANNEL               63                N/A     2/260/12
DANA POINT                    63                N/A     2/260/12
CMP PENDLETON NS              63                N/A
OCEANSIDE OFFSHR              63                N/A     2/240/13
TORREY PINES OTR              63                N/A     2/260/11
LA JOLLA 1                 52 62  100/ 12/ 12 1026.2F
MISSION BAY BUOY              63                N/A     2/250/13
SAN DIEGO BAY                 63              1026.9F
POINT LOMA SOUTH              64                N/A     2/250/13

$$



USA.gov is the U.S. government's official web portal to all federal, state and local government web resources and services.